Find Starlink 34808

NORAD ID: 65745 Int'l Des: 2025-216 Owner: SPXS Country: US Constellation: starlink operational
LEOCIRCULAR

当前视图

正在加载3D地球...

About Starlink 34808

Starlink 34808 (NORAD 65745) is a starlink constellation satellite (v2 mini) launched Sep 25, 2025 by SPXS of US. It operates in LEO, CIRCULAR orbit with a mass of 575.00 kg.

关于 Starlink 34808

正在加载描述...

即将过境

Passes for default location (London). Set your location on the main map for personalized predictions.

高度历史

Loading altitude history...

两行轨道根数

1 65745U 25216M 26195.16718095 .00013218 00000-0 45804-3 0 9992
2 65745 53.1592 105.0036 0001530 102.6845 257.4327 15.30169027 45883
Epoch: Jul 14, 2026 • Age: 9 hours

当前状态

高度 484.7 km
远地点 / 近地点 N/A
速度 7.62 km/s
星下点 -29.69°S, 175.94°W
发射日期 Sep 25, 2025
运行时间 0.7 years
类型 internet

技术详情

分类 Payload
质量 575.00 kg
干质量 530.00 kg
总质量 575.00 kg
长度 0.30 m
直径 4.10 m
跨度 29.00 m
形状 Box + pan
制造商 SPXS
平台类型 Starlink V2MO
阶段状态 In Orbit
所有者/国家 SPXS/US

Most Searched